Cloud_Cover
0 0 0 70 53 90 31 5 88 100 92 83 41 66 30 100 63 41 5 0 4 0 5 58 100 100 100 100 100 100 100 100 41 90 30 85 7 22 31 13 16 5 13 0
0 2 41 93 19 85 76 1 2 3 8 4 2 30 5 5 97 5 3 28 42 98 31 80 100 100 100 100 100 100 100 100 34 40 100 6 6 4 1 0 0 0 9 80
1 56 17 33 82 12 55 2 0 1 3 45 5 3 2 2 11 97 69 76 10 75 39 100 100 100 100 100 100 100 100 100 11 24 100 14 9 7 0 0 3 0 25 9
1 15 20 1 28 100 6 72 10 6 0 0 0 0 5 35 52 12 25 16 19 98 99 100 100 100 100 100 100 100 100 7 20 100 90 30 10 0 0 0 0 0 10 0
0 2 26 2 2 66 5 5 4 0 0 0 0 0 34 91 37 33 42 38 13 100 100 100 100 100 100 100 100 100 100 86 39 100 39 54 6 2 3 0 4 5 0 0
0 2 21 81 94 5 4 2 0 0 0 0 0 0 0 0 0 1 0 2 84 100 100 100 100 100 100 100 100 100 100 32 63 100 27 8 26 1 5 7 0 0 0 0
0 34 66 78 6 57 27 5 4 2 0 0 0 0 5 0 3 1 5 43 60 100 100 100 100 100 100 100 100 100 100 100 100 100 59 76 4 75 6 1 2 5 5 57
0 11 1 2 5 0 3 4 4 0 0 0 0 0 5 0 0 0 5 30 100 100 100 100 100 100 100 100 100 100 100 100 100 100 100 23 34 99 65 14 5 5 70 99
0 8 0 3 1 4 0 0 0 0 0 0 0 0 0 3 0 1 5 4 5 6 100 100 100 100 100 100 100 100 100 100 100 100 79 3 9 90 99 23 2 5 84 21
15 60 4 28 5 21 3 1 0 0 0 0 0 0 0 0 0 0 3 32 29 9 100 100 100 100 100 100 100 100 100 100 100 98 5 7 72 25 21 85 90 14 45 6
100 39 80 63 4 2 0 0 1 1 0 0 2 0 0 0 0 0 10 6 7 3 100 100 100 100 100 100 100 100 100 100 100 76 4 5 7 51 77 39 5 5 23 17
6 10 98 3 0 2 0 0 0 0 0 1 5 1 0 0 0 0 22 6 86 18 99 100 100 100 100 100 100 100 100 100 100 93 88 53 68 100 100 100 21 5 18 20
96 36 7 0 12 5 1 29 60 2 0 0 4 0 0 0 0 4 0 88 37 100 100 100 100 100 100 100 100 100 100 99 100 100 100 100 100 100 100 100 89 90 85 89
96 97 0 0 14 93 9 56 60 40 0 0 0 0 0 0 1 52 42 2 5 100 100 100 100 100 100 100 100 100 100 100 100 100 100 100 100 100 100 86 48 100 89 23
13 47 5 1 21 7 10 100 86 5 1 2 0 0 0 0 0 13 2 88 100 32 100 100 100 94 100 100 100 100 100 100 100 100 100 100 100 100 23 6 5 19 51 5
70 98 2 5 0 3 99 100 100 80 3 5 0 0 0 0 0 0 0 0 22 3 65 100 94 100 100 100 100 100 100 100 100 100 100 100 100 5 5 5 14 34 5 5
99 21 33 2 9 6 96 100 100 89 7 13 1 0 0 0 0 0 0 1 3 47 100 100 100 100 100 100 100 100 100 100 90 61 8 18 5 5 78 31 5 5 10 5
82 100 100 62 97 91 100 64 100 5 1 2 4 0 0 0 0 0 0 0 0 19 33 60 100 11 46 100 100 75 100 100 39 5 5 2 5 5 52 54 6 22 50 6
100 100 100 100 100 100 100 100 100 56 57 1 0 0 4 4 0 0 0 0 0 0 0 0 5 5 17 16 5 4 5 5 0 0 4 5 5 9 5 5 83 83 34 41
100 100 100 100 100 97 100 100 96 100 100 100 100 13 86 83 0 0 0 0 5 2 1 0 0 4 4 5 5 2 5 5 5 5 5 5 5 5 5 65 51 99 95 84
100 100 100 81 81 96 88 91 99 100 100 100 100 92 100 96 19 2 0 4 14 5 16 5 5 5 5 5 5 4 5 6 25 7 5 28 99 6 14 5 45 87 91 92
100 90 100 59 90 97 95 99 28 78 100 100 100 78 98 78 99 5 44 94 99 19 30 28 91 83 65 43 5 12 21 49 45 72 48 82 100 100 69 6 28 16 57 5
100 100 97 100 99 28 100 100 22 44 100 100 100 100 100 100 89 92 72 6 48 50 6 8 77 98 97 63 93 99 100 85 100 100 90 72 95 100 100 100 90 61 92 89
100 100 100 100 85 78 100 100 100 28 98 100 100 100 100 100 100 100 100 58 33 100 12 100 100 100 72 16 32 95 98 99 100 100 94 100 96 99 100 100 99 100 73 77
100 100 70 100 84 75 7 26 38 63 70 13 51 100 100 100 100 100 100 100 100 100 100 100 100 100 78 94 95 77 84 100 96 98 100 100 100 100 100 100 84 77 91 59
100 43 73 100 100 100 98 100 100 100 100 40 19 32 24 97 100 100 100 100 100 100 91 96 86 64 39 93 92 100 100 100 100 100 100 100 100 100 100 100 100 100 100 100